Helicity
42 39 34 12 15 36 37 36 59 59 78 138 129 169 163 150 176 180 202 183 175 180 162 156 161 148 131 103 95 90 76 113 112 118 145 102 115 110
44 17 2 0 29 56 61 74 85 75 100 135 144 142 146 149 152 154 127 106 146 112 135 129 125 136 127 136 92 95 94 115 141 121 123 119 86 111
26 11 -1 -13 -16 9 50 73 90 95 110 125 154 147 179 154 135 79 101 112 115 116 82 115 98 108 133 112 127 119 133 114 101 131 130 117 112 79
39 28 21 -10 -11 -1 33 58 81 108 109 115 131 129 138 112 106 118 119 108 98 87 103 106 109 81 78 80 73 41 62 63 47 69 49 49 75 86
38 56 44 29 18 18 48 80 101 111 122 127 141 151 132 132 110 92 75 77 58 81 72 38 4 35 85 78 68 63 73 76 75 67 69 55 57 67
65 69 56 55 47 49 69 69 84 121 152 162 153 138 134 112 98 97 88 86 82 53 53 59 55 61 71 53 68 67 76 79 78 73 76 88 90 94
53 60 71 79 70 80 68 79 87 89 87 103 106 102 114 100 103 78 67 76 76 82 74 72 70 65 49 58 54 65 77 73 73 79 119 118 111 100
88 93 86 76 91 108 122 137 129 89 89 88 78 75 78 86 90 88 82 84 89 72 67 101 64 73 67 64 68 74 82 70 84 128 105 89 83 72
93 88 90 91 80 93 100 110 135 149 152 103 103 114 104 100 91 101 102 95 85 81 73 80 74 87 80 79 66 79 69 77 130 116 96 89 89 81
85 89 86 85 96 84 93 102 114 135 141 134 131 115 113 108 103 101 95 95 87 75 91 98 87 87 82 64 29 83 79 98 96 102 90 86 81 78
93 92 91 97 96 83 98 108 107 104 111 127 133 130 116 115 108 92 107 96 83 99 104 88 72 69 55 34 23 27 68 67 86 95 93 80 82 86
105 102 102 94 122 113 95 106 107 121 110 97 95 103 95 103 96 89 96 96 82 48 76 56 56 24 20 44 84 79 81 72 79 86 78 79 85 93
124 116 113 101 103 103 121 113 123 131 119 104 90 88 90 92 92 91 82 86 73 54 67 71 74 58 60 77 98 102 77 100 101 81 80 79 78 82
133 126 130 120 110 108 110 114 108 113 112 116 107 100 113 110 112 101 78 65 57 54 75 89 109 80 73 85 92 100 130 109 95 93 85 63 64 70
157 155 155 127 108 116 95 106 94 115 117 121 109 127 132 128 95 79 80 71 84 97 88 94 88 78 87 113 135 135 93 90 59 63 78 72 81 74
150 163 166 142 124 122 119 107 100 117 118 119 127 151 135 104 96 103 94 96 89 87 89 89 96 103 95 118 131 120 89 80 86 61 57 63 64 74
209 205 190 184 183 165 137 125 122 137 132 121 139 130 120 97 87 100 94 97 79 81 81 77 78 88 91 100 116 109 77 65 57 46 33 42 48 59
228 246 228 206 183 170 151 147 133 113 125 133 135 132 121 97 89 96 86 83 72 76 75 69 76 88 95 89 45 131 100 82 82 48 41 34 38 69
269 248 241 221 214 180 168 179 158 142 140 140 141 140 124 102 85 90 83 77 73 76 75 66 76 92 97 105 112 36 55 63 59 64 51 33 41 68
291 275 250 231 232 226 203 197 197 179 158 142 141 139 125 101 94 94 87 80 82 77 86 84 85 106 110 109 87 132 56 89 76 69 44 43 85 56
285 277 274 241 244 242 221 225 208 182 154 150 142 150 147 114 94 89 90 69 71 83 88 95 103 66 86 65 69 82 71 37 23 43 41 42 67 108
295 306 310 261 268 250 229 216 226 158 151 153 141 136 137 108 97 95 95 82 82 84 78 86 97 102 96 65 51 55 68 51 33 8 0 33 92 84
274 323 317 242 213 234 227 226 191 163 160 149 137 139 126 117 99 99 91 91 86 87 80 83 96 102 80 51 24 52 42 34 39 36 37 -7 35 93
Wind_Speed
22 19 17 23 26 45 55 59 57 58 52 45 45 41 42 42 42 42 44 46 50 53 55 59 61 61 63 67 68 59 60 61 63 65 66 68 67 68
23 23 26 28 35 46 45 45 45 48 46 42 42 41 41 40 42 43 47 51 53 56 59 60 60 56 55 58 58 58 58 59 71 72 71 69 69 72
22 19 18 21 23 32 41 40 40 42 43 41 39 40 42 46 48 49 54 56 56 58 58 59 53 51 57 60 64 66 66 65 68 71 71 70 70 71
30 23 20 16 18 22 29 35 39 43 42 37 39 40 42 47 50 54 57 57 58 57 55 55 50 52 57 60 62 63 63 65 69 68 67 68 71 72
35 34 34 30 29 26 28 32 34 34 31 28 36 41 45 48 50 51 54 55 54 55 54 49 49 53 59 62 60 56 60 64 64 66 69 71 71 69
39 38 39 39 36 35 37 38 37 32 32 29 29 30 38 42 45 50 52 52 55 50 47 49 53 56 63 57 61 58 60 61 65 66 66 66 65 68
36 38 40 41 41 40 37 38 37 36 36 33 30 29 35 41 45 48 48 55 54 46 53 57 58 58 56 55 55 57 65 67 66 64 64 68 71 75
31 33 34 35 38 39 40 41 41 37 36 35 34 35 37 40 43 47 50 55 53 45 61 63 53 54 56 57 60 68 68 64 61 64 70 73 75 76
26 28 30 32 34 33 35 37 39 39 39 37 35 37 38 41 44 48 50 53 54 59 60 56 56 60 64 67 70 68 64 60 68 75 76 76 79 86
24 23 25 28 30 30 32 34 35 37 39 38 38 38 40 42 44 47 50 53 56 51 54 58 61 66 70 68 63 57 58 67 69 77 77 77 83 86
23 23 23 23 27 29 28 29 30 34 36 37 37 37 39 42 46 49 50 56 56 53 56 58 61 72 65 60 53 52 71 69 76 76 79 81 83 84
23 23 22 25 21 26 32 31 32 32 33 36 38 38 38 40 44 46 48 53 55 57 50 63 64 67 67 55 59 70 67 70 72 80 79 78 78 76
25 26 23 21 23 24 31 35 35 34 35 37 38 38 39 40 43 46 48 48 53 53 52 60 61 68 62 70 68 65 67 71 75 71 71 73 75 76
31 29 25 22 23 26 28 33 35 35 36 38 38 39 40 43 45 48 47 44 43 46 50 54 56 60 66 73 73 71 75 73 68 70 67 74 72 73
32 30 29 25 24 26 29 31 34 34 37 38 38 39 40 43 46 44 44 44 45 46 46 45 47 54 60 64 68 71 76 72 67 64 74 71 73 72
34 31 29 28 26 28 31 32 34 33 35 37 38 39 42 44 43 42 47 49 54 53 46 44 46 50 59 58 59 67 68 64 67 70 72 72 69 65
31 31 31 30 29 31 32 32 33 34 36 36 36 40 44 44 42 40 43 47 49 55 57 53 52 51 52 53 56 55 58 60 65 73 76 77 74 62
31 34 35 33 34 33 32 33 32 34 34 34 36 39 42 42 41 43 42 45 50 53 56 56 58 62 61 53 43 49 52 57 65 71 71 74 77 71
35 37 38 36 36 33 34 33 34 34 33 32 35 39 39 38 38 40 41 44 48 51 52 54 57 59 63 64 55 49 60 70 63 63 66 70 73 77
37 39 38 37 36 36 34 33 35 32 31 33 36 37 38 38 37 38 40 43 47 50 52 53 55 55 61 63 61 57 49 50 55 65 73 73 45 44
41 40 39 38 39 37 34 33 32 30 31 33 36 36 34 32 35 37 39 42 44 47 51 54 54 56 58 59 57 55 60 57 60 65 71 69 67 67
42 41 38 34 37 33 34 32 32 31 33 32 35 34 32 31 33 36 38 42 43 46 49 51 53 54 54 57 61 56 60 68 66 62 58 47 50 56
37 35 34 33 31 32 31 31 32 33 31 31 32 31 29 30 31 34 37 39 41 45 48 52 54 53 52 53 58 55 59 68 62 62 61 63 51 47
Wind_Direction
17 19 15 6 356 325 303 292 294 294 296 300 297 304 304 309 312 313 316 320 318 318 319 318 314 314 310 307 306 313 312 308 305 305 305 305 305 303
30 29 31 26 4 333 324 316 310 304 303 309 304 306 309 312 315 315 313 313 320 317 315 315 315 318 318 316 317 315 311 311 302 302 302 302 302 300
40 46 47 43 40 11 345 332 323 317 310 313 310 309 307 308 309 312 312 314 318 319 317 316 319 319 316 314 313 311 308 305 305 303 303 302 304 302
29 40 47 59 46 34 12 353 336 325 319 316 315 314 312 312 312 311 311 314 315 319 320 318 318 318 318 318 315 314 310 307 307 307 307 303 302 303
21 24 28 37 41 45 27 8 357 350 345 337 321 315 312 313 313 315 316 317 318 318 319 320 320 319 316 315 317 321 316 311 311 309 306 304 303 304
17 16 16 17 21 23 22 17 12 8 358 355 349 341 325 322 322 319 321 322 321 328 329 326 321 318 315 320 316 320 318 319 315 314 312 311 309 307
21 20 17 16 12 7 11 9 11 11 7 5 0 355 341 331 326 325 328 322 320 332 327 323 322 322 322 324 323 322 319 318 316 315 314 311 309 306
13 13 14 13 10 8 7 4 0 1 0 358 355 350 343 338 335 331 329 323 322 335 326 324 328 328 328 326 323 320 319 320 319 317 314 311 310 308
19 17 16 11 7 8 8 6 4 1 358 355 353 349 345 341 337 333 332 329 326 326 327 327 330 327 327 325 321 322 322 321 318 316 314 312 310 307
10 16 15 12 12 9 5 3 3 1 355 354 351 348 344 342 340 337 334 332 330 332 334 326 329 326 326 326 325 328 327 323 320 319 317 314 312 310
357 0 3 9 3 0 2 2 1 357 357 355 353 348 344 341 337 335 335 332 331 333 335 332 332 329 332 332 333 332 327 325 322 321 320 317 315 313
343 346 347 350 357 355 344 345 345 349 350 346 345 347 346 343 341 340 338 335 334 332 340 334 333 336 331 336 334 328 329 328 326 323 321 320 319 317
328 330 335 336 341 343 341 335 337 342 343 342 339 341 342 341 340 339 338 338 335 333 338 338 334 333 332 329 333 333 332 330 327 327 326 323 321 320
317 322 326 326 329 335 336 333 333 336 338 338 336 336 337 337 337 337 339 341 340 337 337 337 335 335 332 330 331 334 332 331 330 328 329 325 325 324
311 316 320 320 320 327 327 328 328 331 333 334 334 335 336 336 336 339 341 342 341 340 341 341 338 337 335 333 332 333 332 331 332 333 329 329 328 328
304 310 312 313 315 321 323 323 323 327 329 330 332 335 335 335 336 339 338 340 338 340 346 344 342 340 338 337 336 333 333 333 333 332 331 330 332 333
298 304 305 305 307 313 315 319 321 324 325 327 330 331 331 332 335 339 340 340 339 339 341 344 345 344 341 338 337 337 338 337 335 331 328 327 327 336
290 293 295 297 300 305 308 313 317 319 323 327 329 330 330 332 334 336 339 340 338 340 341 345 345 345 346 349 346 341 341 339 337 334 332 327 321 327
282 287 290 291 296 299 304 308 312 317 321 325 327 328 330 332 334 337 338 339 339 341 343 345 345 346 345 345 346 351 342 334 339 340 336 328 324 306
278 283 285 290 292 295 298 303 308 314 317 321 324 327 328 330 333 336 337 338 339 341 343 346 346 347 343 341 341 343 349 346 344 335 327 320 327 269
277 281 286 287 290 292 295 299 303 307 312 317 321 325 329 331 333 336 337 337 339 341 342 343 345 343 341 340 342 345 344 345 339 332 322 318 327 330
280 281 283 284 289 288 293 296 301 304 308 315 320 324 329 331 333 335 337 337 339 341 341 344 346 347 346 342 339 345 344 335 333 334 335 346 344 334
280 280 281 284 284 287 289 292 298 302 306 314 320 324 329 330 333 337 337 338 339 340 341 342 344 346 347 345 341 346 344 334 343 342 335 311 276 258